La Paz, Mexico

1:44 AM MST on December 17, 2017 (GMT -0700)
Gen Manuel Marquez De Leon

Weather History for MMLP - August, 2013

Change the Weather History Date:

Monday, August 19, 2013

  Actual Average Record
Temperature  
Mean Temperature 90 °F -  
Max Temperature 103 °F 95 °F 103 °F (2013)
Min Temperature 78 °F 74 °F 69 °F (2002)
Cooling Degree Days 26    
Growing Degree Days 40 (Base 50)    
Moisture  
Dew Point 64 °F    
Average Humidity 44    
Maximum Humidity 78    
Minimum Humidity 28    
Precipitation  
Precipitation 0.00 in - - ()
Sea Level Pressure  
Sea Level Pressure 29.85 in    
Wind  
Wind Speed 7 mph ()    
Max Wind Speed 14 mph    
Max Gust Speed -    
Visibility 10.8 miles    
Events      
Averages and records for this station are not official NWS values.
T = Trace of Precipitation, MM = Missing Value Source: Averaged Metar Reports

Daily Weather History Graph

Daily Weather History Graph

Search for Another Location

Airport or City:

Trip Planner

Search our weather history database for the weather conditions in past years. The results will help you decide how hot, cold, wet, or windy it might be!

Date:

Astronomy

Aug. 19, 2013 Rise Set
Actual Time 6:58 AM MDT 7:51 PM MDT
Civil Twilight 6:34 AM MDT 8:14 PM MDT
Nautical Twilight 6:07 AM MDT 8:42 PM MDT
Astronomical Twilight 5:38 AM MDT 9:10 PM MDT
Moon 6:45 PM MDT (8/19) 5:24 AM MDT (8/19)
Length of Visible Light 13h 39m
Length of Day
12h 52m
Waxing Gibbous, 97% of the Moon is Illuminated
Aug 19
Waxing Gibbous
Aug 20
Full
Aug 28
Last Quarter
Sep 5
New
Sep 12
First Quarter

Hourly Weather History & Observations

Time (MDT) Temp. Heat Index Dew Point Humidity Pressure Visibility Wind Dir Wind Speed Gust Speed Precip Events Conditions
5:40 AM 79 °F - 73 °F 77% 29.89 in 2 mi South 4.5 mph - -  
5:50 AM 77.0 °F - 69.8 °F 78% 29.91 in 10.0 mi South 8.1 mph - N/A   Clear
6:46 AM 75.2 °F - 68.0 °F 78% 29.87 in 10.0 mi South 6.9 mph - N/A   Partly Cloudy
7:54 AM 77.0 °F - 68.0 °F 74% 29.88 in 10.0 mi South 8.1 mph - N/A   Clear
8:40 AM 83 °F - 74 °F 68% 29.93 in 16 mi South 6.7 mph - -   Scattered Clouds
8:40 AM 78.8 °F - 68.0 °F 69% 29.94 in 10.0 mi SSW 8.1 mph - N/A   Partly Cloudy
9:41 AM 87.8 °F 87.1 °F 59.0 °F 38% 29.88 in 12.0 mi SW 8.1 mph - N/A   Clear
10:51 AM 93.2 °F 91.3 °F 55.4 °F 28% 29.86 in 12.0 mi South 3.5 mph - N/A   Clear
11:46 AM 96.8 °F 96.2 °F 59.0 °F 28% 29.90 in 12.0 mi NW 3.5 mph - N/A   Clear
11:50 AM 81 °F - 73 °F 71% 29.85 in 19 mi West 6.7 mph - -  
12:40 PM 96.8 °F 96.2 °F 59.0 °F 28% 29.84 in 12.0 mi NW 6.9 mph - N/A   Clear
1:42 PM 96.8 °F 96.2 °F 59.0 °F 28% 29.82 in 12.0 mi North 12.7 mph - N/A   Clear
2:50 PM 103 °F - 75 °F 32% 29.80 in 19 mi NW 8.9 mph - -  
2:53 PM 98.6 °F 100.0 °F 62.6 °F 30% 29.91 in 10.0 mi NNW 11.5 mph - N/A   Clear
3:51 PM 98.6 °F 100.0 °F 62.6 °F 30% 29.78 in 10.0 mi NNW 13.8 mph - N/A   Clear
4:52 PM 98.6 °F 99.4 °F 60.8 °F 29% 29.76 in 10.0 mi NW 11.5 mph - N/A   Clear
5:43 PM 96.8 °F 96.2 °F 59.0 °F 28% 29.91 in 10.0 mi NW 6.9 mph - N/A   Clear
5:45 PM 100 °F - 71 °F 30% 29.74 in 19 mi NW 6.7 mph - -  
6:50 PM 95.0 °F 98.5 °F 66.2 °F 39% 29.75 in 10.0 mi NNW 5.8 mph - N/A   Clear
7:43 PM 91.4 °F 89.1 °F 53.6 °F 28% 29.76 in 10.0 mi SSW 9.2 mph - N/A   Clear
8:45 PM 88 °F - 67 °F 41% 29.77 in 2 mi South 11.2 mph - -  
8:50 PM 86.0 °F 84.9 °F 57.2 °F 37% 29.91 in 10.0 mi South 11.5 mph - N/A   Clear
9:47 PM 82.4 °F 82.0 °F 57.2 °F 42% 29.83 in 10.0 mi SSW 9.2 mph - N/A   Clear
10:49 PM 82.4 °F 81.4 °F 53.6 °F 37% 29.86 in 10.0 mi South 11.5 mph - N/A   Clear
11:50 PM 83 °F - 63 °F 41% 29.79 in 2 mi South 11.2 mph - -